Regional Weather Roundup
Issued by NWS

Home | Current Version | Previous Version | Graphics & Text | Print | Product List | Glossary On
Versions: 1 2 3 4 5 6 7 8 9 10 11 12 13 14 15 16 17 18 19 20 21 22 23 24 25 26 27 28 29 30 31 32 33 34 35 36 37 38 39 40 41 42 43 44 45 46 47 48 49 50
000
ASUS43 KLOT 301609
RWRIL

ILLINOIS REGIONAL WEATHER ROUNDUP
NATIONAL WEATHER SERVICE CHICAGO/ROMEOVILLE IL
1100 AM CDT TUE AUG 30 2016

NOTE: "FAIR" INDICATES FEW OR NO CLOUDS BELOW 12,000 FEET WITH NO
SIGNIFICANT WEATHER AND/OR OBSTRUCTIONS TO VISIBILITY.

* THESE STATIONS ARE NOT UNDER NWS QUALITY CONTROL. THEY ALSO MAY NOT
  REPORT WEATHER SUCH AS PRECIPITATION OR FOG.

ILZ001-002-007-009-015-016-024-301700-
NORTHWEST ILLINOIS

CITY           SKY/WX    TMP DP  RH WIND       PRES   REMARKS
MOLINE         CLOUDY    76  70  82 SW3       30.14S
STERLING*      CLOUDY    75  71  87 VRB6      30.14F
SAVANNA*       CLOUDY    75  71  85 CALM      30.14R
$$

ILZ003-004-008-010-011-017-018-301700-
NORTH CENTRAL ILLINOIS

CITY           SKY/WX    TMP DP  RH WIND       PRES   REMARKS
ROCKFORD       CLOUDY    75  68  78 SW5       30.16R
FREEPORT*      CLOUDY    74  69  85 W3        30.17R
ROCHELLE*      CLOUDY    72  70  95 SW3       30.14S
DE KALB*       LGT RAIN  73  69  89 W3        30.16R
$$

ILZ005-006-012>014-019>023-301700-
NORTHEAST ILLINOIS

CITY           SKY/WX    TMP DP  RH WIND       PRES   REMARKS
CHICAGO-OHARE  CLOUDY    77  71  82 W3        30.13S
CHICAGO-MIDWAY CLOUDY    79  72  79 CALM      30.12F HX  82
AURORA         CLOUDY    74  69  85 SE5       30.14F
LANSING*       CLOUDY    77  76  97 CALM      30.14S
JOLIET*        CLOUDY    74  71  88 W3        30.14F
WAUKEGAN       MOSUNNY   80  71  74 NW6       30.13S HX  84
DUPAGE AIRPORT CLOUDY    75  68  78 VRB3      30.13F
KANKAKEE*      CLOUDY    77  71  82 SW3       30.16R
WHEELING       CLOUDY    78  71  79 VRB3      30.14S HX  80
MORRIS*        PTSUNNY   74  69  85 CALM      30.13F
ROMEOVILLE*    CLOUDY    74  73  98 CALM      30.14F
NORTHERLY ISL    N/A     76  71  85 SE2         N/A
$$

LMZ740>746-301700-
SOUTHERN LAKE MICHIGAN

STATION/POSITION SKY/WX   TEMP    WIND        PRES    VSBY  WAVE
                          AIR SEA DIR/SP/G                  HT/PER
                          (F)     (DEG/KT/KT) (MB)    (MI)  (FT/S)
SOUTHERN BUOY              74 75  180/ 10/ 12 1019.5S         2/ 3
WILMETTE HARBOR            75 75  200/  4/  6   N/A           1/ 2
HARRISON CRIB              75     130/  9/  9   N/A
BURNHAM HARBOR             75     130/  7       N/A
CALUMET HARBOR             74      30/  5/  6 1020.0R
BURNS HARBOR               73      60/ 12/ 15 1020.7F
MICHIGAN CITY              71      70/ 10/ 12   N/A
MICHIGAN CITY 6N           71 69  150/  6/  8   N/A           1/ 2
ST. JOSEPH                 68 69  100/  4/  4 1020.5F         0
$$

ILZ025>027-034>036-040-047-049-050-058-095>099-301700-
WEST-CENTRAL ILLINOIS

CITY           SKY/WX    TMP DP  RH WIND       PRES   REMARKS
QUINCY         RAIN      70  69  97 NE8       30.16S FOG
GALESBURG*     CLOUDY    76  70  81 S7        30.15F
MACOMB*        MOSUNNY   76  72  86 SE10      30.18S
JACKSONVILLE*  CLOUDY    73  71  95 E10       30.17S THUNDER
PITTSFIELD*    TSTM      70  69  96 N9G20     30.19R
$$

ILZ028>032-037-038-041>044-048-051>054-059>061-301700-
CENTRAL ILLINOIS

CITY           SKY/WX    TMP DP  RH WIND       PRES   REMARKS
PONTIAC        LGT RAIN  72  71  98 S3        30.15F
BLOOMINGTON    LGT RAIN  70  69  97 SW6       30.17F FOG
DECATUR        CLOUDY    80  71  74 N10       30.18F HX  84
PEORIA         MOSUNNY   74  73  97 S9        30.14F
LACON*         CLOUDY    75  70  85 SW5       30.12F
LINCOLN*       TSTM      71  71 100 CALM      30.18F
SPRINGFIELD    LGT RAIN  72  70  93 NE7       30.18F
TAYLORVILLE    TSTM      74  71  91 N20G30    30.18R
$$

ILZ033-039-045-046-055>057-062-063-301700-
EAST-CENTRAL ILLINOIS

CITY           SKY/WX    TMP DP  RH WIND       PRES   REMARKS
CHAMPAIGN      MOSUNNY   82  71  69 N6        30.17S HX  86
RANTOUL*       MOSUNNY   82  74  76 NW6       30.17S HX  87
MATTOON        MOSUNNY   83  69  62 CALM      30.15S HX  86
PARIS*         MOSUNNY   85  76  74 N3        30.16S HX  94
$$

ILZ079-100>102-301700-
SOUTHWEST ILLINOIS

CITY           SKY/WX    TMP DP  RH WIND       PRES   REMARKS
ALTON          MOSUNNY   84  73  70 VRB3      30.15R HX  91
BELLEVILLE     SUNNY     88  72  59 N3        30.13R HX  95
CAHOKIA*       SUNNY     88  71  57 S3        30.13S HX  94
SPARTA*        SUNNY     85  73  65 CALM      30.14S HX  91
$$

ILZ064>066-069>071-074>076-080>082-084>086-088>090-092>094-301700-
SOUTH-CENTRAL ILLINOIS

CITY           SKY/WX    TMP DP  RH WIND       PRES   REMARKS
CARBONDALE     MOSUNNY   86  73  65 CALM      30.13S HX  93
CAIRO*         SUNNY     86  76  72 CALM      30.10S HX  95
EFFINGHAM*     SUNNY     86  75  70 CALM      30.17R HX  95
MARION         MOSUNNY   88  73  62 CALM      30.13F HX  96
MT. VERNON     SUNNY     88  72  58 CALM      30.14S HX  94
CENTRALIA*     SUNNY     86  75  68 CALM      30.13S HX  94
SALEM*         SUNNY     86  74  68 CALM      30.15R HX  94
METROPOLIS*    SUNNY     89  74  62 CALM      30.11S HX  98
$$

ILZ067-068-072-073-078-083-087-091-301700-
SOUTHEAST ILLINOIS

CITY           SKY/WX    TMP DP  RH WIND       PRES   REMARKS
LAWRENCEVILLE  SUNNY     87  73  62 VRB3      30.14S HX  94
FLORA*         SUNNY     87  73  63 CALM      30.14S HX  93
FAIRFIELD*     SUNNY     85  72  66 CALM      30.13S HX  90
HARRISBURG*    SUNNY     87  74  66 E3        30.12S HX  95
ROBINSON*      SUNNY     84  74  71 CALM      30.16R HX  91
CARMI*         SUNNY     86  74  68 CALM      30.12S HX  94
$$

ABBREVIATIONS USED IN REMARKS
   TC - TEMPERATURE IN CELSIUS
  WCI - WIND CHILL INDEX
   HX - HEAT INDEX
  VSB - VISIBILITY
$$




USA.gov is the U.S. government's official web portal to all federal, state and local government web resources and services.